OneWeb SL0018

operational
NORAD ID: 45434 Int'l Des: 2020-020 Owner: ONEWEB Country: UK Constellation: oneweb
LEOCIRCULARPOLARONEWEB_TYPE

Über OneWeb SL0018

Beschreibung wird geladen...

Live-Position

3D-Globus wird geladen...

Nächste Überflüge

Höhenverlauf

Altitude vs Time

uPlot chart will show altitude changes over time

Zweizeiliger Elementsatz

1 45434U 20020L 25303.86982862 .00000632 00000-0 17468-2 0 9995
2 45434 87.8849 66.7268 0001689 103.1857 256.9459 13.11417728272578
Epoch: 30. Okt. 2025 • Age: 10 hours

Aktueller Status

Höhe 1230.2 km
Geschwindigkeit 7.25 km/s
Subsatellitenpunkt 84.58°N, 86.35°E
Startdatum 21. März 2020
Alter 5.6 years
Typ internet

Technische Details

Klassifizierung Payload
Masse 148.00 kg
Trockenmasse 140.00 kg
Gesamtmasse 148.00 kg
Länge 1.30 m
Durchmesser 1.00 m
Spannweite 5.00 m
Form Trapezoid+2 pan
Hersteller ONEWUS
Bus-Typ ARROW
Phasenstatus In Orbit
Besitzer/Staat ONEWEB/UK

Große Konstellationen

Loading constellations...